Date,TemperatureHighF,TemperatureAvgF,TemperatureLowF,DewpointHighF,DewpointAvgF,DewpointLowF,HumidityHigh,HumidityAvg,HumidityLow,PressureMaxIn,PressureMinIn,WindSpeedMaxMPH,WindSpeedAvgMPH,GustSpeedMaxMPH,PrecipitationSumIn
2013-1-1,43.0,37.2,32.0,40.7,35.6,30.7,97,94,80,30.95,30.58,9,1,9,0.16
2013-1-2,46.0,36.1,32.0,40.6,33.6,30.5,97,91,71,30.73,30.26,12,1,12,0.00
2013-1-3,48.0,36.5,29.0,39.2,32.8,28.0,98,87,62,30.56,30.07,29,8,29,0.01
2013-1-4,44.0,41.0,37.0,42.4,38.7,34.9,94,91,89,30.72,30.53,26,4,26,0.00
2013-1-5,45.0,42.9,41.0,42.5,40.1,37.7,93,90,85,30.64,30.54,26,7,27,0.02
2013-1-6,44.0,42.9,39.0,42.4,41.1,36.9,95,93,90,30.59,30.39,27,12,27,0.01
2013-1-7,51.0,45.8,43.0,48.2,43.2,39.8,95,91,73,30.63,30.20,27,7,27,0.04
2013-1-8,52.0,45.7,41.0,49.2,43.5,38.3,94,92,89,30.64,30.17,31,11,31,0.04
2013-1-9,49.0,40.7,36.0,46.5,37.8,33.6,93,90,85,30.36,30.13,19,7,19,0.46
2013-1-10,39.0,36.5,33.0,37.2,32.5,25.4,96,86,60,30.55,30.34,18,4,18,0.08
2013-1-11,41.0,34.3,28.0,29.2,25.8,21.8,97,72,53,30.67,30.28,19,4,19,0.00
2013-1-12,40.0,31.6,27.0,34.3,29.1,26.3,99,91,65,30.81,30.30,12,1,12,0.00
2013-1-13,36.0,33.0,29.0,32.7,30.9,28.4,99,92,80,30.87,30.72,11,3,11,0.00
2013-1-14,37.0,34.6,33.0,35.2,32.8,30.5,98,93,88,30.98,30.82,16,7,16,0.00
2013-1-15,45.0,38.2,35.0,41.4,36.1,33.2,96,92,82,31.13,30.81,10,1,10,0.00
2013-1-16,44.0,38.8,36.0,38.2,36.1,34.3,96,90,77,31.11,30.61,13,3,13,0.00
2013-1-17,41.0,36.3,32.0,39.4,34.8,30.7,96,94,90,30.98,30.54,13,3,13,0.00
2013-1-18,38.0,35.0,30.0,36.2,31.5,28.2,95,87,80,30.80,30.64,10,1,10,0.00
2013-1-19,42.0,38.3,36.0,40.7,36.3,34.3,96,92,88,30.85,30.54,13,2,13,0.00
2013-1-20,46.0,39.9,38.0,42.3,37.0,34.8,95,89,84,30.86,30.44,11,3,11,0.00
2013-1-21,38.0,36.2,34.0,35.7,33.9,31.9,96,91,87,30.70,30.51,13,4,13,0.00
2013-1-22,37.0,34.6,32.0,36.0,32.7,29.9,96,93,91,30.56,30.35,12,2,12,0.54
2013-1-23,44.0,40.9,37.0,42.1,38.3,34.6,95,91,87,30.59,30.24,23,7,26,0.10
2013-1-24,44.0,41.7,38.0,42.1,38.9,34.8,95,90,85,30.68,30.48,32,12,32,0.00
2013-1-25,51.0,42.9,38.0,47.6,40.5,35.6,94,91,84,30.51,30.07,22,3,22,0.00
2013-1-26,43.0,40.5,38.0,41.4,38.1,35.6,95,91,89,30.46,30.14,30,5,30,0.19
2013-1-27,41.0,38.9,36.0,39.4,36.4,33.6,94,91,89,30.47,30.36,12,2,12,0.11
2013-1-28,46.0,41.3,37.0,43.1,38.3,34.3,93,89,83,30.57,30.41,22,6,22,0.27
2013-1-29,48.0,45.4,43.0,46.4,42.0,37.9,94,88,84,30.84,30.57,20,5,26,0.31
2013-1-30,48.0,44.5,43.0,40.5,38.1,36.6,84,78,74,30.89,30.80,3,0,6,0.22
2013-1-31,49.0,45.7,44.0,47.6,40.7,35.6,95,83,72,30.90,30.68,16,5,16,0.03
2013-2-1,52.0,44.5,42.0,49.8,41.4,37.5,96,89,84,30.90,30.28,13,4,13,0.00
2013-2-2,48.0,42.7,40.0,46.4,40.1,36.8,96,90,83,30.87,30.13,12,5,13,0.00
2013-2-3,45.0,41.5,38.0,42.8,38.3,34.5,95,89,83,30.73,30.65,12,3,12,0.04
2013-2-4,48.0,44.2,41.0,45.4,41.3,35.9,95,89,82,30.66,30.33,17,7,17,0.01
2013-2-5,51.0,45.4,40.0,46.1,42.9,38.4,97,91,72,30.35,29.67,34,11,34,0.56
2013-2-6,47.0,42.7,37.0,44.2,41.0,35.7,96,93,88,29.87,29.62,38,12,38,0.04
2013-2-7,50.0,42.6,38.0,43.7,39.7,36.0,97,90,67,30.06,29.60,34,9,40,0.02
2013-2-8,46.0,41.3,38.0,43.1,39.2,37.2,98,92,82,30.20,30.05,17,3,17,0.00
2013-2-9,43.0,41.1,40.0,41.1,39.3,38.1,96,93,91,30.22,30.12,10,1,10,0.01
2013-2-10,45.0,40.8,37.0,42.5,39.0,35.4,97,93,86,30.29,30.20,10,2,10,0.00
2013-2-11,44.0,41.3,40.0,41.8,39.5,38.1,97,93,91,30.23,30.18,14,4,14,0.04
2013-2-12,48.0,43.6,40.0,47.2,42.1,37.9,98,95,91,30.52,30.13,23,4,23,0.01
2013-2-13,47.0,44.8,43.0,45.5,43.4,41.5,100,95,87,30.38,30.19,24,4,24,0.12
2013-2-14,45.0,43.3,42.0,43.5,41.2,38.1,99,92,84,31.04,30.41,13,5,13,0.14
2013-2-15,53.0,45.7,40.0,49.6,43.7,38.1,100,93,78,31.01,30.03,17,4,17,0.00
2013-2-16,50.0,43.8,39.0,48.7,40.9,37.2,100,89,80,30.07,29.98,37,6,37,0.01
2013-2-17,44.0,41.2,38.0,41.7,39.8,37.6,100,95,81,30.13,29.96,12,3,15,0.01
2013-2-18,45.0,40.8,38.0,41.8,39.1,37.0,100,94,79,29.96,29.61,28,11,28,0.01
2013-2-19,47.0,41.9,37.0,45.5,39.4,35.5,100,91,69,29.86,29.59,26,6,26,0.00
2013-2-20,44.0,39.7,35.0,42.4,39.2,35.0,100,98,92,29.90,29.84,19,7,19,0.03
2013-2-21,46.0,41.0,37.0,42.7,40.0,37.0,100,96,82,29.92,29.85,19,6,26,0.02
2013-2-22,47.0,42.3,38.0,45.4,40.8,35.0,100,94,83,29.89,29.53,39,11,39,0.11
2013-2-23,48.0,43.3,37.0,41.5,37.7,33.7,100,81,67,30.24,29.73,31,8,31,0.00
2013-2-24,46.0,42.3,39.0,43.5,40.6,38.2,100,94,86,30.24,29.75,45,17,45,0.00
2013-2-25,50.0,43.3,39.0,42.7,36.3,29.7,99,78,47,30.16,29.71,43,10,43,0.11
2013-2-26,45.0,40.4,35.0,41.1,37.9,34.7,100,91,77,30.19,30.01,34,13,34,0.24
2013-2-27,46.0,42.1,37.0,44.4,40.5,36.5,99,94,79,30.20,30.05,13,3,18,0.01
2013-2-28,50.0,45.3,41.0,49.5,44.2,39.7,99,96,94,30.17,30.04,22,9,25,0.03
2013-3-1,56.0,51.5,46.0,51.9,49.7,45.2,99,94,83,30.22,30.14,33,8,33,0.00
2013-3-2,53.0,47.2,41.0,51.6,44.7,32.9,99,91,64,30.16,29.95,35,7,35,0.16
2013-3-3,48.0,43.5,37.0,41.8,37.8,33.0,99,81,68,30.20,30.05,26,6,26,0.00
2013-3-4,52.0,40.5,33.0,41.1,36.5,31.5,100,87,53,30.16,29.79,12,2,12,0.00
2013-3-5,49.0,42.1,36.0,44.0,39.3,35.0,100,90,65,29.79,29.61,16,3,16,0.11
2013-3-6,43.0,40.6,39.0,40.1,38.2,36.3,93,91,90,29.75,29.49,17,4,17,0.36
2013-3-7,46.0,41.8,39.0,45.0,40.1,36.3,100,93,89,29.98,29.75,13,3,13,0.06
2013-3-8,50.0,43.2,37.0,46.2,41.1,36.0,100,92,75,30.09,29.96,17,4,17,0.00
2013-3-9,58.0,41.4,34.0,51.6,40.1,33.8,100,95,67,30.56,30.09,15,2,15,0.00
2013-3-10,45.0,41.8,40.0,44.0,41.4,38.4,100,98,93,30.38,30.30,10,1,10,0.04
2013-3-11,48.0,44.4,41.0,47.0,42.7,38.9,100,94,81,30.36,30.00,23,5,23,0.00
2013-3-12,55.0,49.5,46.0,52.9,48.6,44.4,100,97,89,30.01,29.90,28,8,28,0.12
2013-3-13,51.0,49.1,46.0,50.5,47.9,43.5,100,96,89,30.60,29.95,19,8,19,0.04
2013-3-14,54.0,49.0,47.0,50.2,47.3,44.0,99,94,75,30.67,30.46,24,6,24,1.24
2013-3-15,57.0,48.8,46.0,55.9,46.3,42.0,98,91,84,30.71,30.49,17,3,17,0.00
2013-3-16,48.0,43.9,40.0,45.4,40.0,36.2,100,86,72,30.62,30.21,31,7,31,0.66
2013-3-17,44.0,41.3,39.0,40.9,37.9,32.7,98,88,75,30.61,30.19,25,8,25,0.00
2013-3-18,49.0,42.4,37.0,42.5,37.0,32.5,99,83,59,30.69,30.10,29,7,29,0.05
2013-3-19,50.0,40.6,35.0,44.5,38.2,33.7,100,92,62,30.64,30.01,30,9,30,0.00
2013-3-20,54.0,46.3,38.0,51.2,41.3,32.4,98,83,68,30.44,29.36,35,14,35,0.11
2013-3-21,45.0,39.4,34.0,39.1,35.7,29.9,100,87,68,30.66,30.11,27,5,27,0.00
2013-3-22,45.0,38.1,33.0,37.7,34.1,26.1,100,86,52,30.79,30.25,17,4,17,0.00
2013-3-23,46.0,38.8,33.0,38.9,35.4,33.0,100,88,64,30.82,30.37,12,2,12,1.64
2013-3-24,51.0,40.4,33.0,41.4,36.1,31.2,100,86,61,30.73,30.28,9,1,9,0.00
2013-3-25,59.0,45.2,34.0,44.8,36.9,29.6,99,76,39,30.60,30.15,12,2,12,0.00
2013-3-26,56.0,46.8,41.0,46.9,40.9,36.3,96,81,54,30.54,30.07,14,4,14,0.00
2013-3-27,47.0,45.4,44.0,44.9,43.5,41.8,96,93,90,30.50,30.45,13,4,13,0.00
2013-3-28,60.0,50.4,40.0,58.3,47.4,38.1,97,90,73,30.66,30.33,12,2,12,0.02
2013-3-29,60.0,47.2,41.0,57.6,42.2,35.2,95,83,58,30.83,30.51,12,2,12,0.00
2013-3-30,61.0,50.2,38.0,52.4,43.3,30.8,97,78,67,30.78,30.32,16,5,16,0.00
2013-3-31,66.0,55.1,45.0,49.8,45.4,42.3,95,71,45,30.65,30.36,13,4,13,0.00
2013-4-1,57.0,47.6,42.0,53.7,44.2,36.6,97,88,73,30.70,30.45,14,3,14,0.00
2013-4-2,51.0,47.4,45.0,48.2,42.6,37.2,97,83,74,30.74,30.68,16,3,16,0.02
2013-4-3,58.0,49.4,46.0,52.3,45.8,40.5,100,88,68,30.74,30.41,12,4,13,0.00
2013-4-4,54.0,49.3,46.0,52.2,46.3,41.5,97,90,73,30.50,30.11,34,8,34,0.04
2013-4-5,58.0,50.9,47.0,54.6,48.2,39.2,98,91,74,30.36,30.10,36,9,36,0.07
2013-4-6,54.0,47.6,44.0,51.5,44.8,39.5,99,90,77,30.37,30.16,26,5,26,0.09
2013-4-7,51.0,44.2,40.0,47.6,40.0,33.1,98,86,74,30.36,30.04,25,5,25,0.98
2013-4-8,52.0,46.7,42.0,49.5,43.1,35.0,99,88,72,30.78,30.36,12,3,12,0.04
2013-4-9,51.0,46.9,44.0,48.3,44.7,38.9,99,92,82,30.85,30.68,19,6,19,0.00
2013-4-10,53.0,49.5,46.0,50.2,46.4,39.2,98,89,76,30.77,30.26,37,12,37,0.15
2013-4-11,52.0,47.2,43.0,45.1,41.9,37.9,96,82,63,30.79,30.54,25,8,25,0.00
2013-4-12,44.0,42.8,41.0,43.2,40.8,35.6,98,93,77,30.67,30.14,32,8,32,0.05
2013-4-13,51.0,41.9,38.0,46.3,39.3,31.3,99,91,69,30.44,29.92,23,6,32,0.08
2013-4-14,52.0,43.1,37.0,43.7,38.5,34.5,100,85,54,30.46,29.99,12,3,12,0.00
2013-4-15,52.0,44.2,34.0,46.3,40.0,32.6,100,86,65,30.67,30.25,19,5,19,0.04
2013-4-16,58.0,48.5,42.0,47.2,38.5,23.4,98,72,29,30.93,30.61,16,5,16,0.01
2013-4-17,55.0,45.6,39.0,46.7,42.0,35.0,97,88,63,30.95,30.65,23,6,23,0.00
2013-4-18,49.0,45.9,42.0,47.9,44.0,37.5,98,93,83,30.95,30.64,17,8,17,0.04
2013-4-19,53.0,48.4,46.0,50.7,44.0,39.2,96,85,73,30.72,30.44,22,5,22,0.20
2013-4-20,52.0,48.0,47.0,49.8,46.9,43.9,98,96,89,30.77,30.71,16,5,19,0.00
2013-4-21,53.0,47.3,44.0,46.2,44.4,41.8,99,90,73,30.84,30.52,14,8,16,0.00
2013-4-22,56.0,50.8,42.0,46.5,35.7,24.9,98,58,39,31.03,30.85,19,7,19,0.00
2013-4-23,58.0,48.4,36.0,45.0,37.2,26.8,89,67,34,30.94,30.58,17,5,17,0.00
2013-4-24,66.0,53.6,40.0,55.4,42.9,34.5,96,69,38,30.89,30.45,16,3,16,0.00
2013-4-25,70.0,53.7,42.0,52.7,46.4,40.4,95,78,45,30.70,30.36,20,4,20,0.00
2013-4-26,64.0,51.3,44.0,53.8,44.4,37.2,97,78,47,30.83,30.50,23,5,23,0.00
2013-4-27,56.0,50.2,47.0,54.0,46.7,39.1,97,88,71,30.77,30.57,20,3,20,0.02
2013-4-28,54.0,47.9,45.0,49.3,43.1,37.4,97,84,70,30.75,30.43,16,4,16,0.03
2013-4-29,54.0,49.0,44.0,45.2,40.6,35.6,97,73,58,30.65,30.39,34,14,34,0.06
2013-4-30,57.0,46.0,39.0,42.1,36.4,29.0,96,72,36,30.95,30.60,24,5,24,0.00
2013-5-1,63.0,49.5,36.0,45.4,38.8,33.0,98,70,37,31.15,30.90,12,4,12,0.00
2013-5-2,63.0,53.1,42.0,47.9,41.9,36.0,93,68,42,31.09,30.83,20,6,20,0.00
2013-5-3,68.0,58.0,48.0,51.7,48.1,43.4,86,71,50,31.02,30.18,22,9,22,0.00
2013-5-4,72.0,62.8,54.0,51.7,47.6,40.4,80,59,42,30.26,29.95,25,7,25,0.00
2013-5-5,78.0,63.8,51.0,55.0,48.8,43.7,89,61,34,30.52,29.89,16,5,19,0.00
2013-5-6,80.0,61.6,49.0,63.9,53.2,47.3,95,76,49,30.49,30.28,21,5,21,0.00
2013-5-7,66.0,53.4,46.0,56.1,49.3,42.7,94,86,66,30.56,30.36,16,4,16,0.00
2013-5-8,63.0,52.0,47.0,56.5,47.6,42.1,94,85,72,30.74,30.49,13,3,13,0.00
2013-5-9,61.0,50.8,45.0,54.5,45.7,39.5,96,83,69,30.78,30.55,17,5,17,0.00
2013-5-10,65.0,51.6,45.0,56.1,46.1,37.5,96,82,69,30.75,30.60,14,2,14,0.08
2013-5-11,71.0,56.2,48.0,57.3,49.8,41.4,96,79,58,30.74,30.33,27,3,27,0.00
2013-5-12,65.0,56.0,52.0,61.9,48.4,40.8,95,76,63,30.65,30.54,20,4,20,0.10
2013-5-13,63.0,53.5,49.0,59.7,46.7,40.4,97,78,65,30.74,30.12,32,6,32,0.54
2013-5-14,61.0,51.4,44.0,54.0,45.2,36.9,98,80,51,30.83,30.48,17,4,17,0.00
2013-5-15,60.0,51.4,45.0,55.0,48.0,42.9,97,89,68,30.69,30.37,12,3,12,0.01
2013-5-16,63.0,54.5,49.0,58.1,48.0,38.9,98,79,67,30.58,30.21,17,5,17,0.57
2013-5-17,61.0,53.0,50.0,58.7,46.6,38.3,97,79,63,30.63,30.39,15,2,15,0.25
2013-5-18,62.0,53.3,49.0,55.9,45.9,34.9,98,77,59,30.85,30.40,13,3,13,0.06
2013-5-19,64.0,53.9,49.0,53.5,48.9,40.7,98,84,58,30.99,30.60,25,7,25,0.03
2013-5-20,61.0,51.2,44.0,53.4,47.1,35.8,99,86,68,30.90,30.33,21,9,21,0.00
2013-5-21,53.0,47.5,45.0,50.7,41.1,32.4,98,79,61,30.54,30.02,16,4,16,0.21
2013-5-22,54.0,49.3,47.0,50.7,45.6,39.5,100,88,73,30.47,30.07,15,4,15,0.04
2013-5-23,55.0,48.6,44.0,49.2,43.7,33.8,100,84,66,30.52,30.21,28,10,28,0.01
2013-5-24,51.0,47.1,45.0,50.7,44.0,39.5,100,89,80,30.54,30.40,12,2,12,0.00
2013-5-25,65.0,51.9,47.0,55.4,46.0,36.6,98,81,67,30.59,30.49,8,3,9,0.08
2013-5-26,56.0,50.7,47.0,54.9,44.5,35.9,96,79,64,30.56,30.45,9,2,9,0.12
2013-5-27,54.0,51.6,47.0,52.3,45.0,36.0,94,79,63,30.48,30.17,19,8,19,0.01
2013-5-28,59.0,54.2,49.0,55.9,51.0,41.9,99,89,69,30.40,30.10,28,9,28,0.01
2013-5-29,54.0,50.5,48.0,53.7,44.2,36.6,99,80,62,30.51,29.96,19,5,19,0.15
2013-5-30,58.0,51.3,48.0,54.3,45.5,34.8,100,81,60,30.78,30.27,19,5,19,0.10
2013-5-31,61.0,52.9,48.0,52.6,45.7,34.4,98,77,58,30.88,30.56,13,3,13,0.09
2013-6-1,65.0,55.8,49.0,55.2,50.1,45.0,99,82,56,30.82,30.32,17,6,17,0.00
2013-6-2,66.0,57.7,51.0,56.3,50.9,45.7,98,79,60,30.72,30.46,18,5,18,0.35
2013-6-3,66.0,54.7,48.0,61.2,49.7,37.8,98,84,63,30.73,30.48,15,5,15,0.00
2013-6-4,75.0,62.1,50.0,57.1,51.9,42.3,96,71,43,30.77,30.57,18,8,18,0.00
2013-6-5,68.0,59.1,50.0,61.4,54.6,45.0,97,85,71,30.72,30.50,20,7,20,0.00
2013-6-6,71.0,59.9,50.0,62.8,53.9,43.8,96,81,67,30.68,30.47,26,8,26,0.00
2013-6-7,67.0,56.2,52.0,59.3,52.3,48.6,98,87,72,30.76,30.41,28,6,28,0.00
2013-6-8,65.0,56.6,51.0,57.7,51.6,46.7,96,84,69,30.79,30.51,25,8,25,0.00
2013-6-9,64.0,56.4,51.0,52.7,50.0,47.2,97,80,62,30.72,30.56,26,11,26,0.00
2013-6-10,67.0,56.3,47.0,53.5,50.4,45.4,97,82,55,30.62,30.37,23,8,23,0.00
2013-6-11,61.0,54.1,51.0,54.2,50.7,45.9,97,89,67,30.69,30.34,22,6,22,0.00
2013-6-12,59.0,52.7,48.0,55.8,49.3,41.8,97,88,77,30.73,30.49,15,4,15,0.09
2013-6-13,63.0,55.3,50.0,55.9,49.3,39.5,96,81,67,30.80,30.53,28,7,28,0.00
2013-6-14,65.0,54.1,50.0,57.3,50.6,43.0,97,88,73,30.83,30.64,19,3,19,0.09
2013-6-15,67.0,57.9,50.0,56.4,51.6,43.1,96,80,59,30.66,30.40,16,6,16,0.00
2013-6-16,65.0,57.8,49.0,57.8,53.1,44.1,96,85,70,30.73,30.41,19,5,19,0.00
2013-6-17,74.0,59.0,52.0,65.9,53.7,42.1,96,83,52,30.71,30.32,19,5,19,0.09
2013-6-18,70.0,58.5,53.0,57.9,51.9,41.7,96,79,60,30.60,30.36,28,7,28,0.00
2013-6-19,64.0,57.3,54.0,57.3,54.2,50.8,98,90,67,30.63,30.23,19,6,19,0.00
2013-6-20,56.0,54.0,52.0,54.9,49.2,39.0,97,84,61,30.70,30.50,22,7,22,0.10
2013-6-21,65.0,55.8,52.0,58.7,48.3,36.3,96,77,55,30.80,30.41,15,4,15,0.02
2013-6-22,66.0,55.8,52.0,58.1,49.2,40.6,97,79,65,30.73,30.41,13,4,13,0.00
2013-6-23,65.0,60.0,52.0,61.3,55.3,44.0,97,85,62,30.44,30.21,10,2,10,0.06
2013-6-24,62.0,55.9,52.0,59.6,45.2,36.8,96,69,50,30.29,30.16,15,3,15,0.10
2013-6-25,69.0,57.4,36.0,61.4,48.5,20.1,97,73,52,30.41,29.98,22,9,22,0.03
2013-6-26,70.0,58.1,53.0,62.6,50.1,37.3,97,75,54,30.68,30.15,24,8,24,0.00
2013-6-27,67.0,57.7,54.0,64.0,47.0,34.8,96,69,46,30.85,30.54,25,6,25,0.07
2013-6-28,72.0,59.9,51.0,66.9,51.1,33.5,97,74,49,30.85,30.37,16,3,16,0.00
2013-6-29,76.0,64.3,54.0,66.5,52.9,36.4,97,68,44,30.74,30.44,16,4,16,0.23
2013-6-30,81.0,64.9,53.0,67.0,57.6,42.9,97,78,59,30.68,30.15,19,4,22,0.00
2013-7-1,76.0,65.3,55.0,68.9,55.5,41.1,97,72,34,30.68,30.35,23,7,23,0.00
2013-7-2,71.0,61.9,56.0,64.2,49.7,35.3,97,65,44,30.74,30.50,29,7,29,0.00
2013-7-3,70.0,62.4,55.0,59.6,56.3,51.5,97,81,67,30.81,30.54,29,10,29,0.00
2013-7-4,69.0,59.6,54.0,60.4,56.3,51.2,98,89,65,30.73,30.44,17,6,19,0.00
2013-7-5,72.0,59.7,53.0,61.7,54.7,39.5,97,84,58,30.66,30.38,16,6,16,3.14
2013-7-6,75.0,62.5,53.0,60.4,54.5,43.1,95,76,51,30.65,30.42,18,6,18,0.00
2013-7-7,71.0,61.2,52.0,60.7,54.9,41.8,94,80,66,30.60,30.40,10,4,11,0.00
2013-7-8,74.0,63.1,51.0,62.5,57.4,39.9,96,82,56,30.75,30.38,14,5,14,0.00
2013-7-9,72.0,60.9,51.0,60.4,52.1,36.3,94,73,49,30.74,30.57,26,6,26,0.00
2013-7-10,71.0,59.4,53.0,59.0,53.5,44.6,96,82,65,30.70,30.47,29,9,29,6.28
2013-7-11,63.0,57.4,55.0,56.8,52.4,49.6,95,84,67,30.71,30.52,23,7,24,0.00
2013-7-12,68.0,57.8,53.0,58.4,53.2,48.8,96,85,64,30.72,30.48,24,6,24,0.00
2013-7-13,73.0,59.4,48.0,56.8,52.6,45.0,97,81,43,30.83,30.63,20,6,20,0.00
2013-7-14,72.0,60.5,48.0,57.8,53.1,45.1,96,79,43,30.82,30.56,25,7,25,0.00
2013-7-15,78.0,66.4,53.0,57.1,52.5,47.9,94,64,37,30.75,30.55,18,10,22,0.00
2013-7-16,81.0,70.5,60.0,56.8,52.4,45.8,86,54,38,30.64,30.44,20,7,20,0.00
2013-7-17,69.0,62.7,58.0,62.9,58.1,54.0,94,85,71,30.82,30.53,19,8,19,0.00
2013-7-18,70.0,62.1,56.0,60.4,56.9,53.4,94,84,64,30.85,30.68,20,8,20,0.00
2013-7-19,69.0,58.3,53.0,61.0,52.2,42.3,95,80,64,30.80,30.60,21,7,21,0.00
2013-7-20,56.0,53.8,52.0,44.8,41.3,38.6,71,63,55,30.69,30.64,7,2,7,0.00
2013-7-21,69.0,56.9,51.0,62.6,45.0,34.5,93,65,49,30.57,30.46,11,4,12,0.00
2013-7-22,71.0,60.8,53.0,63.7,53.5,32.8,95,78,40,30.68,30.54,16,6,16,0.00
2013-7-23,53.0,51.6,51.0,35.9,31.5,28.7,52,46,43,30.68,30.62,8,1,13,0.00
2013-7-24,74.0,62.5,50.0,59.4,53.3,29.5,95,73,40,30.72,30.50,19,6,19,0.00
2013-7-25,72.0,58.2,49.0,61.4,42.7,25.8,95,58,36,30.77,30.55,22,4,22,0.00
2013-7-26,72.0,60.5,50.0,59.7,51.1,28.1,95,73,39,30.83,30.64,26,6,26,12.92
2013-7-27,76.0,59.8,48.0,60.9,51.4,31.1,95,75,43,30.83,30.60,17,4,17,0.00
2013-7-28,67.0,57.2,50.0,61.3,49.8,31.7,96,77,44,30.64,30.44,17,5,17,0.00
2013-7-29,72.0,57.8,52.0,61.7,46.4,31.9,96,68,44,30.64,30.46,14,3,14,0.00
2013-7-30,67.0,55.4,50.0,61.9,38.3,26.9,95,55,36,30.77,30.60,17,5,17,0.00
2013-7-31,60.0,54.0,52.0,58.3,33.9,27.2,94,48,36,30.75,30.52,13,3,15,8.03
2013-8-1,64.0,55.8,51.0,62.8,38.4,20.8,97,55,26,30.71,30.58,13,3,13,0.00
2013-8-2,57.0,55.8,55.0,44.4,23.4,10.5,65,31,17,30.81,30.70,10,2,10,0.10
2013-8-3,69.0,59.6,55.0,62.9,35.2,4.1,97,51,12,30.82,30.61,17,6,17,0.00
2013-8-4,75.0,61.5,51.0,64.5,44.8,2.2,96,61,12,30.75,30.58,20,5,20,0.00
2013-8-5,72.0,57.9,51.0,63.0,40.9,12.5,97,58,21,30.64,30.50,13,3,15,0.00
2013-8-6,70.0,56.7,50.0,62.5,34.9,8.2,97,51,18,30.63,30.46,16,4,16,0.00
2013-8-7,72.0,57.9,49.0,69.6,35.3,6.4,97,50,17,30.68,30.53,16,3,16,0.10
2013-8-8,74.0,59.8,52.0,63.7,32.5,-39.8,96,47,1,30.70,30.53,23,4,23,0.00
2013-8-9,73.0,57.6,51.0,63.3,30.9,-21.8,95,49,5,30.60,30.42,11,1,11,0.00
2013-8-10,71.0,58.9,53.0,65.9,29.6,-45.3,96,48,1,30.88,30.50,17,5,20,0.01
2013-8-11,70.0,59.2,54.0,64.0,41.8,1.0,97,59,10,30.72,30.58,16,5,16,0.00
2013-8-12,70.0,59.8,52.0,64.9,40.1,-32.0,96,60,2,30.98,30.59,19,6,19,0.01
2013-8-13,74.0,61.4,53.0,63.0,48.1,-20.5,96,67,5,30.78,30.56,15,5,15,0.00
2013-8-14,72.0,59.0,52.0,64.6,32.7,-42.8,96,49,1,30.72,30.37,13,3,13,0.26
2013-8-15,62.0,58.0,55.0,0.0,0.0,0.0,0,0,100,30.78,30.63,12,1,12,0.05
2013-8-16,76.0,62.4,58.0,70.5,28.1,0.0,99,39,75,30.67,16.23,23,3,23,0.81
2013-8-17,70.0,61.8,55.0,65.4,53.4,26.7,100,77,32,30.09,29.95,22,5,22,0.00
2013-8-18,68.0,61.7,57.0,64.7,57.6,43.7,100,87,61,30.14,30.04,24,7,24,0.81
2013-8-19,71.0,61.8,55.0,64.6,56.1,40.5,100,82,56,30.15,30.03,28,6,28,0.00
2013-8-20,71.0,61.8,54.0,58.7,55.8,52.0,100,82,55,30.19,29.95,22,7,22,0.00
2013-8-21,75.0,64.6,55.0,59.6,55.4,51.9,100,75,46,30.12,29.93,19,8,20,0.00
2013-8-22,76.0,62.1,50.0,61.1,54.8,40.8,100,78,53,29.96,29.78,19,2,19,0.00
2013-8-23,68.0,59.3,54.0,64.4,52.5,39.1,100,79,56,29.89,29.78,21,3,21,0.00
2013-8-24,73.0,60.1,55.0,67.8,50.2,35.0,99,72,42,29.94,29.84,24,4,24,0.02
2013-8-25,68.0,58.4,52.0,61.4,53.5,39.1,100,85,55,29.96,29.82,22,3,22,0.00
2013-8-26,71.0,59.5,50.0,67.0,54.5,41.0,100,84,55,29.90,29.81,35,8,35,0.00
2013-8-27,71.0,61.4,57.0,65.0,54.1,40.1,99,78,52,29.91,29.79,23,7,23,0.05
2013-8-28,69.0,59.8,54.0,66.8,48.0,33.5,98,68,33,29.90,29.77,12,2,13,0.02
2013-8-29,70.0,61.2,55.0,67.5,44.8,29.3,96,58,30,29.97,29.81,30,11,30,0.08
2013-8-30,74.0,63.2,56.0,69.2,54.4,31.6,98,75,34,30.19,29.97,19,4,19,0.17
2013-8-31,71.0,62.7,55.0,66.2,56.2,36.6,99,80,49,30.08,29.81,18,7,18,0.00
2013-9-1,74.0,63.0,53.0,65.5,55.0,35.3,98,76,41,29.91,29.80,19,4,19,0.00
2013-9-2,72.0,61.6,56.0,65.1,55.3,45.0,98,80,62,29.93,29.82,17,4,22,0.00
2013-9-3,65.0,59.2,54.0,62.8,41.9,29.1,96,55,32,30.01,29.90,12,2,12,0.17
2013-9-4,68.0,59.6,53.0,66.8,41.3,27.5,99,55,31,30.07,29.97,18,5,18,0.00
2013-9-5,67.0,58.9,54.0,65.1,35.1,22.1,98,46,23,30.03,29.91,19,4,19,0.38
2013-9-6,66.0,59.7,56.0,61.4,30.0,13.9,85,35,15,30.07,29.94,14,3,14,0.17
2013-9-7,70.0,60.8,55.0,67.6,34.8,11.4,97,45,13,30.10,30.02,19,3,19,0.01
2013-9-8,70.0,58.8,52.0,66.9,41.4,18.8,96,58,21,30.13,30.01,17,4,20,0.00
2013-9-9,70.0,57.5,53.0,66.6,30.1,13.5,96,40,18,30.07,29.95,16,3,20,0.00
2013-9-10,74.0,62.6,51.0,66.9,46.3,11.8,97,62,17,30.04,29.87,18,6,18,0.00
2013-9-11,84.0,67.0,55.0,66.3,55.1,36.2,97,67,46,30.00,29.87,14,1,14,0.89
2013-9-12,70.0,61.4,53.0,66.6,49.5,19.9,96,70,27,29.99,29.88,20,4,20,1.50
2013-9-13,61.0,56.4,53.0,38.6,16.2,5.4,45,21,11,29.95,29.85,9,1,9,0.00
2013-9-14,66.0,56.6,52.0,64.8,20.5,-0.7,97,29,8,29.85,29.69,14,3,14,0.01
2013-9-15,58.0,55.0,52.0,14.1,9.1,1.0,21,16,10,29.77,29.67,12,2,29,2.74
2013-9-16,63.0,57.7,55.0,59.2,28.7,-19.1,99,44,5,29.93,29.75,19,3,19,0.19
2013-9-17,65.0,57.0,52.0,63.5,46.9,15.2,99,75,22,29.89,29.81,20,4,20,0.00
2013-9-18,64.0,55.5,50.0,60.2,43.8,11.3,99,69,17,30.06,29.87,15,3,15,0.00
2013-9-19,68.0,56.0,50.0,58.4,42.6,11.6,98,65,22,29.99,29.68,27,4,27,14.67
2013-9-20,69.0,55.6,48.0,60.2,42.0,14.5,98,65,23,29.69,29.57,22,4,22,0.02
2013-9-21,65.0,55.8,52.0,63.4,24.2,3.8,98,37,12,29.71,29.59,15,2,15,0.07
2013-9-22,59.0,54.6,52.0,54.8,32.0,3.5,94,49,13,29.65,29.46,41,10,41,0.01
2013-9-23,59.0,53.4,51.0,58.7,33.0,12.5,99,52,20,29.91,29.64,15,3,20,0.06
2013-9-24,56.0,51.1,49.0,55.2,25.4,6.9,98,42,17,29.91,29.78,13,3,16,0.34
2013-9-25,62.0,52.3,47.0,55.2,31.9,4.2,98,54,16,29.98,29.79,26,6,26,0.08
2013-9-26,58.0,49.9,43.0,57.2,35.0,9.7,98,62,20,30.09,29.93,13,2,13,0.00
2013-9-27,56.0,51.9,48.0,53.9,29.7,11.4,96,47,21,30.03,29.75,26,5,26,0.04
2013-9-28,59.0,53.6,50.0,47.5,22.8,-31.4,74,35,8,29.75,29.20,37,12,37,0.31
2013-9-29,56.0,52.3,49.0,55.7,35.4,6.1,99,58,17,29.44,29.05,34,16,41,0.29
2013-9-30,57.0,50.1,47.0,55.5,38.1,20.8,99,65,35,29.80,29.27,20,5,27,0.09
2013-10-1,56.0,49.9,45.0,54.2,42.3,22.1,100,77,37,30.03,29.78,20,7,25,0.00
2013-10-2,51.0,49.0,46.0,50.0,31.0,8.9,100,55,20,30.10,29.97,16,5,20,0.11
2013-10-3,59.0,50.1,44.0,54.7,35.2,8.6,100,64,19,30.39,30.10,13,2,13,0.00
2013-10-4,60.0,47.8,43.0,56.1,27.5,1.8,99,50,12,30.42,30.26,13,2,13,0.11
2013-10-5,67.0,53.4,47.0,59.3,39.5,15.6,99,64,27,30.32,30.05,15,2,15,0.00
2013-10-6,72.0,55.8,44.0,61.2,38.1,12.0,98,54,25,30.06,29.77,31,7,31,0.01
2013-10-7,61.0,53.4,50.0,56.9,41.8,21.3,98,68,32,29.95,29.78,28,4,28,0.14
2013-10-8,57.0,52.4,50.0,56.4,47.4,21.3,100,85,32,30.03,29.90,19,7,26,0.00
2013-10-9,55.0,49.7,46.0,53.3,46.5,32.5,100,89,57,30.08,29.88,14,4,16,0.00
2013-10-10,56.0,49.9,47.0,54.5,42.0,32.2,99,75,55,30.00,29.86,11,2,11,0.00
2013-10-11,54.0,49.3,47.0,53.7,37.6,22.1,99,67,36,30.10,29.99,9,1,9,0.00
2013-10-12,55.0,49.4,46.0,54.7,33.7,13.5,99,60,22,30.13,29.99,15,6,19,0.25
2013-10-13,59.0,49.8,43.0,54.5,42.8,27.5,100,78,50,30.30,30.12,13,3,16,0.00
2013-10-14,58.0,48.8,41.0,53.8,39.1,23.0,100,71,42,30.40,30.26,15,3,15,0.00
2013-10-15,58.0,48.9,42.0,56.7,38.6,19.9,100,70,33,30.31,30.11,14,2,14,0.00
2013-10-16,59.0,50.6,45.0,56.9,39.9,20.8,100,69,35,30.16,30.07,17,4,17,0.00
2013-10-17,59.0,48.0,42.0,56.4,32.1,16.5,100,58,26,30.24,30.10,16,1,16,0.00
2013-10-18,57.0,46.2,41.0,50.7,22.0,10.5,92,40,22,30.18,30.05,12,2,12,0.01
2013-10-19,48.0,45.3,41.0,20.8,15.3,11.0,44,30,23,30.13,30.05,14,2,14,0.00
2013-10-20,49.0,47.1,46.0,31.2,21.6,11.1,51,37,23,30.14,30.07,12,2,12,0.00
2013-10-21,49.0,46.5,45.0,25.7,15.3,11.0,43,28,22,30.11,30.02,10,2,12,0.00
2013-10-22,54.0,46.4,42.0,19.8,15.8,10.2,35,29,18,30.05,29.95,10,2,12,0.00
2013-10-23,53.0,44.1,40.0,36.3,14.9,6.1,57,31,17,29.99,29.90,13,0,13,0.01
2013-10-24,49.0,45.1,41.0,19.2,15.4,11.3,34,30,24,30.04,29.92,15,2,15,0.01
2013-10-25,52.0,48.2,45.0,42.5,21.7,5.7,72,37,18,30.25,30.04,12,4,12,0.00
2013-10-26,54.0,49.6,46.0,53.7,30.4,7.7,99,53,20,30.30,30.11,16,4,16,0.00
2013-10-27,57.0,51.5,47.0,54.7,36.6,6.9,99,62,18,30.12,29.88,29,7,29,0.25
2013-10-28,56.0,52.7,49.0,43.5,38.5,34.4,75,59,46,29.94,29.86,23,10,29,0.25
2013-10-29,58.0,46.8,38.0,52.4,42.0,32.9,100,84,59,29.99,29.84,20,2,20,0.00
2013-10-30,51.0,45.8,38.0,51.0,38.4,15.5,100,77,37,30.05,29.89,20,4,20,0.00
2013-10-31,52.0,49.7,47.0,49.5,37.0,25.1,98,63,42,30.19,29.96,15,4,17,0.01
2013-11-1,53.0,49.8,49.0,51.0,29.5,17.3,93,47,28,30.20,29.70,12,3,18,0.00
2013-11-2,52.0,48.8,44.0,49.5,37.2,14.7,99,69,27,29.78,29.29,28,12,38,0.35
2013-11-3,52.0,44.3,38.0,48.2,39.9,29.0,100,85,65,30.01,29.77,10,2,16,0.00
2013-11-4,47.0,42.3,36.0,46.0,34.5,17.0,100,76,38,30.09,29.93,22,7,26,0.00
2013-11-5,51.0,45.7,44.0,51.0,39.0,24.4,100,79,44,30.17,29.92,23,4,26,0.70
2013-11-6,49.0,45.7,41.0,45.5,32.0,22.6,91,60,42,30.25,29.89,29,5,33,0.03
2013-11-7,52.0,48.7,47.0,49.2,34.8,18.8,97,62,31,29.93,29.58,30,16,43,0.15
2013-11-8,53.0,47.3,42.0,52.2,38.7,25.7,100,74,40,30.09,29.86,10,2,15,0.01
2013-11-9,48.0,44.4,42.0,47.7,31.4,18.2,99,63,37,30.04,30.00,10,2,14,0.00
2013-11-10,48.0,45.9,44.0,44.3,30.2,16.3,87,56,30,30.09,30.02,13,6,17,0.04
2013-11-11,53.0,48.0,43.0,52.5,39.1,26.6,100,73,48,30.07,29.92,13,5,16,0.00
2013-11-12,58.0,52.1,46.0,57.4,44.1,19.9,100,77,33,30.24,29.91,27,8,37,0.00
2013-11-13,56.0,49.6,47.0,52.9,28.7,10.8,96,49,21,30.39,30.23,12,3,15,0.03
2013-11-14,51.0,47.4,43.0,51.0,37.2,24.4,100,69,44,30.25,29.95,15,6,22,0.00
2013-11-15,48.0,43.6,41.0,46.5,30.2,17.0,98,62,34,29.97,29.23,24,6,37,0.31
2013-11-16,49.0,44.7,41.0,48.2,42.6,34.7,100,92,76,29.64,29.24,25,6,34,0.00
2013-11-17,59.0,44.8,39.0,52.8,38.1,29.8,100,78,58,29.79,29.62,14,3,16,0.00
2013-11-18,50.0,44.7,41.0,38.3,25.9,18.0,69,48,30,29.79,29.44,12,2,21,0.01
2013-11-19,47.0,43.2,38.0,45.2,28.9,8.6,97,61,23,29.95,29.44,25,8,32,0.11
2013-11-20,44.0,38.1,33.0,38.0,33.7,26.9,100,85,64,30.37,29.93,13,4,23,0.00
2013-11-21,44.0,37.0,32.0,38.6,33.2,27.0,100,87,57,30.56,30.36,8,3,13,0.00
2013-11-22,45.0,38.1,33.0,42.9,33.7,24.3,98,84,69,30.55,30.32,12,4,15,0.00
2013-11-23,47.0,39.4,34.0,45.9,31.5,15.9,97,75,41,30.34,30.07,9,2,14,0.00
2013-11-24,50.0,41.0,36.0,49.5,25.6,12.1,98,57,29,30.13,30.03,7,1,13,0.00
2013-11-25,47.0,39.6,36.0,36.6,17.4,7.8,79,42,22,30.22,30.11,8,1,11,0.00
2013-11-26,47.0,39.5,34.0,43.8,20.8,5.3,92,49,26,30.15,29.96,11,3,15,0.00
2013-11-27,55.0,44.0,39.0,52.9,28.5,5.9,96,61,22,29.99,29.87,12,3,15,0.00
2013-11-28,47.0,41.4,37.0,33.3,12.8,-0.1,61,32,16,30.07,29.89,10,1,10,0.00
2013-11-29,47.0,44.7,42.0,38.5,23.6,3.6,72,46,19,30.21,30.06,10,3,13,0.00
2013-11-30,48.0,46.9,45.0,37.6,23.0,6.4,67,41,20,30.22,29.99,12,6,15,0.01
2013-12-1,51.0,47.1,42.0,42.7,21.2,-0.7,95,40,15,29.95,29.63,31,8,41,0.21
2013-12-2,44.0,40.1,34.0,42.1,36.6,25.9,100,88,72,29.92,29.67,19,7,41,0.23
2013-12-3,38.0,34.6,30.0,34.0,26.4,21.0,96,73,50,30.17,29.90,17,6,25,0.00
2013-12-4,41.0,31.7,27.0,35.0,27.2,22.4,100,85,55,30.25,30.11,10,1,13,0.00
2013-12-5,33.0,29.7,25.0,33.0,28.9,24.6,100,97,71,30.14,30.01,10,3,13,0.00
2013-12-6,33.0,28.1,23.0,29.5,17.7,11.0,94,65,46,30.06,29.99,17,7,21,0.00
2013-12-7,31.0,24.8,21.0,22.8,12.8,7.8,100,61,42,30.21,30.04,17,4,23,0.00
2013-12-8,35.0,27.2,20.0,28.0,23.0,17.9,100,85,61,30.37,30.17,10,2,13,0.00
2013-12-9,32.0,30.3,26.0,32.0,29.1,25.6,100,95,80,30.37,30.29,15,8,20,0.00
2013-12-10,38.0,34.3,31.0,37.0,31.6,24.3,100,90,73,30.32,30.27,10,6,14,0.00
2013-12-11,38.0,35.8,33.0,35.2,24.3,10.8,93,64,36,30.28,29.98,9,2,10,0.00
2013-12-12,47.0,39.7,34.0,46.2,29.4,17.2,98,67,46,30.00,29.85,21,7,25,0.00
2013-12-13,45.0,42.5,40.0,35.2,21.5,7.6,71,44,22,30.30,29.97,12,3,21,0.00
2013-12-14,47.0,45.2,43.0,40.2,24.7,7.6,77,47,23,30.31,30.18,16,6,21,0.00
2013-12-15,48.0,45.2,42.0,35.5,23.0,6.8,66,43,21,30.33,30.19,13,3,16,0.03
2013-12-16,54.0,43.4,40.0,53.5,17.9,-2.1,99,41,14,30.40,30.13,13,3,15,0.01
2013-12-17,41.0,39.7,38.0,23.3,11.9,2.5,50,33,22,30.14,29.97,16,6,17,0.04
2013-12-18,46.0,42.4,35.0,43.0,32.6,20.2,100,70,43,30.00,29.92,20,7,31,1.45
2013-12-19,38.0,36.2,35.0,34.7,30.1,23.6,95,79,58,30.16,29.93,11,2,11,2.55
2013-12-20,38.0,35.5,32.0,35.5,12.2,5.3,100,42,26,30.04,29.55,28,9,31,0.08
2013-12-21,42.0,39.9,38.0,22.2,4.8,-8.5,46,24,12,30.04,29.71,7,1,10,0.10
2013-12-22,46.0,43.6,41.0,13.1,4.8,-5.3,27,20,13,30.18,30.02,13,2,13,0.23
2013-12-23,51.0,45.9,41.0,48.3,22.6,-49.0,96,53,1,30.40,30.00,35,6,35,0.08
2013-12-24,45.0,40.6,35.0,42.9,26.5,8.3,96,60,28,30.51,30.38,10,1,10,0.00
2013-12-25,43.0,39.0,34.0,41.4,20.5,-2.2,94,53,19,30.39,30.26,9,2,11,0.00
2013-12-26,45.0,39.5,35.0,39.5,22.8,6.0,83,52,29,30.28,30.03,13,3,13,0.00
2013-12-27,46.0,40.1,34.0,34.5,7.5,-6.3,69,28,12,30.26,29.94,16,4,17,0.05
2013-12-28,50.0,41.8,37.0,49.2,23.2,3.4,97,51,21,30.45,30.24,13,2,13,0.00
2013-12-29,42.0,39.5,35.0,29.5,12.6,-2.9,61,35,17,30.36,30.18,13,3,13,0.00
2013-12-30,44.0,41.3,38.0,31.0,13.6,-1.7,60,34,16,30.19,29.99,13,2,15,0.03
2013-12-31,45.0,42.6,40.0,28.9,10.8,-2.3,53,28,15,30.25,30.05,10,3,12,0.01
2014-1-1,46.0,41.9,39.0,37.6,10.3,-8.7,77,31,12,30.29,30.12,10,1,10,0.02
2014-1-2,47.0,43.4,41.0,44.5,13.5,-9.9,100,34,10,30.12,29.77,35,6,35,0.24